Orbital Elements at Epoch 2459200.5 (2020-Dec-17.0) TDB
Reference: JPL 20 (heliocentric ecliptic J2000)
Element | Value | Uncertainty (1-sigma) | Units |
e | .1799774994708382 | 4.2531e-08 | |
a | 2.297757711992326 | 6.9805e-09 | au |
q | 1.884213024598113 | 9.8632e-08 | au |
i | 4.94745790210665 | 3.4345e-06 | deg |
node | 118.8099831753993 | 5.5762e-05 | deg |
peri | 289.4372881081663 | 5.6926e-05 | deg |
M | .2681685707127006 | 1.0257e-05 | deg |
tp | 2459199.552323411267 (2020-Dec-16.05232341) | 3.6247e-05 | TDB |
period | 1272.198196221223 3.48 | 5.7973e-06 1.587e-08 | d yr |
n | .2829747763118189 | 1.2895e-09 | deg/d |
Q | 2.711302399386539 | 8.2368e-09 | au |
|
| | Orbit Determination Parameters
Additional Information
|